Tucson Davis Monthan, AZ

8:31 PM MST on June 24, 2018 (GMT -0700)
Davis-Monthan Air Force Base

Weather History for KDMA - December, 2017

Change the Weather History Date:

Saturday, December 30, 2017

  Actual Average Record
Temperature  
Mean Temperature 62 °F -  
Max Temperature 82 °F 61 °F 82 °F (2017)
Min Temperature 43 °F 38 °F 22 °F (1988)
Degree Days  
Heating Degree Days 2    
Growing Degree Days 12 (Base 50)    
Moisture  
Dew Point 18 °F    
Average Humidity 22    
Maximum Humidity 34    
Minimum Humidity 7    
Precipitation  
Precipitation 0.00 in - - ()
Sea Level Pressure  
Sea Level Pressure 30.05 in    
Wind  
Wind Speed 7 mph (SSE)    
Max Wind Speed 13 mph    
Max Gust Speed -    
Visibility 10 miles    
Events      
Averages and records for this station are not official NWS values.
T = Trace of Precipitation, MM = Missing Value Source: NWS Daily Summary

Daily Weather History Graph

Daily Weather History Graph

Search for Another Location

Airport or City:

Astronomy

Dec. 30, 2017 Rise Set
Actual Time 7:24 AM MST 5:28 PM MST
Civil Twilight 6:57 AM MST 5:55 PM MST
Nautical Twilight 6:26 AM MST 6:26 PM MST
Astronomical Twilight 5:56 AM MST 6:55 PM MST
Moon 3:32 PM MST (12/30) 4:30 AM MST (12/30)
Length of Visible Light 10h 58m
Length of Day
10h 04m
Waxing Gibbous, 92% of the Moon is Illuminated
Dec 30
Waxing Gibbous
Jan 1
Full
Jan 8
Last Quarter
Jan 16
New
Jan 24
First Quarter

Hourly Weather History & Observations

Time (MST) Temp. Windchill Dew Point Humidity Pressure Visibility Wind Dir Wind Speed Gust Speed Precip Events Conditions
12:58 AM 48.2 °F - 17.4 °F 29% 30.08 in 10.0 mi SE 9.2 mph - N/A   Clear
1:58 AM 47.5 °F - 17.6 °F 30% 30.08 in 10.0 mi SE 11.5 mph - N/A   Clear
2:58 AM 46.9 °F - 17.1 °F 30% 30.08 in 10.0 mi SE 8.1 mph - N/A   Clear
3:58 AM 45.1 °F 40.8 °F 17.1 °F 33% 30.08 in 10.0 mi SSE 8.1 mph - N/A   Clear
4:58 AM 46.8 °F - 16.2 °F 29% 30.08 in 10.0 mi ESE 3.5 mph - N/A   Clear
5:58 AM 46.9 °F - 15.4 °F 28% 30.09 in 10.0 mi SSE 8.1 mph - N/A   Clear
6:58 AM 43.5 °F 38.3 °F 16.3 °F 34% 30.11 in 10.0 mi SSE 9.2 mph - N/A   Clear
7:58 AM 44.8 °F 40.4 °F 16.7 °F 32% 30.13 in 10.0 mi SSE 8.1 mph - N/A   Clear
8:58 AM 54.0 °F - 18.0 °F 24% 30.13 in 10.0 mi SSE 12.7 mph - N/A   Clear
9:58 AM 61.7 °F - 17.8 °F 18% 30.12 in 10.0 mi South 8.1 mph - N/A   Clear
10:58 AM 67.8 °F - 16.9 °F 14% 30.09 in 10.0 mi SSE 5.8 mph - N/A   Clear
11:58 AM 74.3 °F - 16.3 °F 11% 30.05 in 10.0 mi Calm Calm - N/A   Clear
12:58 PM 80.6 °F - 19.0 °F 10% 29.99 in 10.0 mi Calm Calm - N/A   Clear
1:58 PM 82.4 °F - 15.1 °F 8% 29.96 in 10.0 mi Calm Calm - N/A   Clear
2:58 PM 82.4 °F - 12.2 °F 7% 29.95 in 10.0 mi West 3.5 mph - N/A   Clear
3:58 PM 80.2 °F - 13.6 °F 8% 29.96 in 10.0 mi NW 10.4 mph - N/A   Clear
4:58 PM 75.2 °F - 17.1 °F 11% 29.96 in 10.0 mi NW 8.1 mph - N/A   Clear
5:58 PM 67.6 °F - 18.3 °F 15% 29.98 in 10.0 mi NW 4.6 mph - N/A   Clear
6:58 PM 63.1 °F - 18.9 °F 18% 30.01 in 10.0 mi NW 5.8 mph - N/A   Clear
7:58 PM 58.5 °F - 20.8 °F 23% 30.04 in 10.0 mi Calm Calm - N/A   Clear
8:58 PM 52.2 °F - 21.7 °F 30% 30.04 in 10.0 mi SE 10.4 mph - N/A   Clear
9:58 PM 51.4 °F - 21.7 °F 31% 30.04 in 10.0 mi ESE 5.8 mph - N/A   Clear
10:58 PM 48.9 °F - 21.0 °F 33% 30.04 in 10.0 mi SE 9.2 mph - N/A   Clear
11:58 PM 48.7 °F - 19.4 °F 31% 30.02 in 10.0 mi SSE 5.8 mph - N/A   Clear